Starlink 31254

operational
NORAD ID: 58892 Int'l Des: 2024-020 Owner: SPXS Country: US Constellation: starlink
LEOCIRCULAR

Starlink 31254について

説明を読み込み中...

リアルタイム位置

3D地球を読み込み中...

次回通過

高度履歴

Altitude vs Time

uPlot chart will show altitude changes over time

軌道要素

1 58892U 24020S 25353.83335647 .00212097 00000-0 97026-3 0 9995
2 58892 53.1386 321.5036 0016342 82.0852 117.6459 15.82427294 5913
Epoch: Dec 19, 2025 • Age: 6 hours

現在のステータス

高度 319.4 km
速度 7.72 km/s
衛星直下点 27.59°N, 0.97°E
打ち上げ日 Jan 29, 2024
運用期間 1.8 years
タイプ internet

技術仕様

分類 Payload
質量 730.00 kg
乾燥質量 700.00 kg
総質量 730.00 kg
長さ 0.30 m
直径 4.10 m
スパン 29.00 m
形状 Box + pan
製造者 SPXS
バスタイプ Starlink V2M
フェーズステータス In Orbit
所有者/国 SPXS/US

大規模コンステレーション

Loading constellations...